Location: *
(48.4333°N, 5.0333°W)
Time: 22:03:30
(UTC+00:00)

STARLINK-1143 - Pass Details

Date: 09 April 2020
Orbit: 549 x 550 km, 53.0° (Epoch: 26 May)

Event Time Altitude Azimuth Distance (km) Brightness Sun altitude
Rises 19:47:34 0° 292° (WNW) 2,733 9.8 -7.9°
Reaches altitude 10° 19:49:51 10° 296° (WNW) 1,837 8.0 -8.2°
Maximum altitude 19:53:58 57° 16° (NNE) 659 4.1 -8.9°
Enters shadow 19:57:50 12° 95° (E) 1,737 5.6 -9.4°
